Stevens Point, WI

7:07 PM CST on December 05, 2019 (GMT -0600)
Stevens Point Municipal

Weather History for KSTE - November, 2019

Change the Weather History Date:

Monday, November 11, 2019

  Actual Average Record
Temperature  
Mean Temperature 12 °F -  
Max Temperature 19 °F 42 °F 66 °F (1964)
Min Temperature 5 °F 26 °F 1 °F (1986)
Degree Days  
Heating Degree Days 52    
Moisture  
Dew Point 3 °F    
Average Humidity 62    
Maximum Humidity 80    
Minimum Humidity 47    
Precipitation  
Precipitation 0.00 in - - ()
Sea Level Pressure  
Sea Level Pressure 30.37 in    
Wind  
Wind Speed 9 mph (NW)    
Max Wind Speed 15 mph    
Max Gust Speed 24 mph    
Visibility 10 miles    
Events Snow    
Averages and records for this station are not official NWS values.
T = Trace of Precipitation, MM = Missing Value Source: NWS Daily Summary

Daily Weather History Graph

Daily Weather History Graph

Search for Another Location

Airport or City:

Astronomy

Nov. 11, 2019 Rise Set
Actual Time 6:48 AM CST 4:34 PM CST
Civil Twilight 6:17 AM CST 5:05 PM CST
Nautical Twilight 5:42 AM CST 5:40 PM CST
Astronomical Twilight 5:08 AM CST 6:15 PM CST
Moon 4:33 PM CST (11/11) 5:35 AM CST (11/11)
Length of Visible Light 10h 48m
Length of Day
9h 45m
Waxing Gibbous, 99% of the Moon is Illuminated
Nov 11
Waxing Gibbous
Nov 12
Full
Nov 19
Last Quarter
Nov 26
New
Dec 4
First Quarter

Hourly Weather History & Observations

Time (CST) Temp. Windchill Dew Point Humidity Pressure Visibility Wind Dir Wind Speed Gust Speed Precip Events Conditions
12:15 AM 17.8 °F 6.6 °F 7.2 °F 63% 30.29 in 10.0 mi North 9.2 mph - N/A   Overcast
12:35 AM 17.6 °F 7.3 °F 7.0 °F 63% 30.29 in 10.0 mi North 8.1 mph - N/A   Scattered Clouds
12:55 AM 17.4 °F 8.0 °F 7.5 °F 65% 30.30 in 10.0 mi North 6.9 mph - N/A   Mostly Cloudy
1:15 AM 17.1 °F 7.6 °F 7.3 °F 66% 30.30 in 10.0 mi North 6.9 mph - N/A   Scattered Clouds
1:35 AM 17.1 °F 6.6 °F 7.3 °F 66% 30.31 in 10.0 mi North 8.1 mph - N/A   Clear
1:55 AM 16.5 °F 8.1 °F 7.5 °F 68% 30.30 in 10.0 mi North 5.8 mph - N/A   Clear
2:15 AM 16.5 °F 6.0 °F 7.3 °F 67% 30.30 in 10.0 mi North 8.1 mph - N/A   Clear
2:35 AM 16.5 °F 8.1 °F 7.5 °F 68% 30.30 in 10.0 mi NNW 5.8 mph - N/A   Scattered Clouds
2:55 AM 16.5 °F 8.1 °F 7.5 °F 68% 30.32 in 10.0 mi North 5.8 mph - N/A   Overcast
3:15 AM 16.5 °F 8.1 °F 7.7 °F 68% 30.32 in 10.0 mi NNW 5.8 mph - N/A   Overcast
3:35 AM 16.5 °F 9.4 °F 7.7 °F 68% 30.32 in 10.0 mi North 4.6 mph - N/A   Overcast
3:55 AM 16.5 °F 9.4 °F 7.7 °F 68% 30.32 in 10.0 mi North 4.6 mph - N/A   Overcast
4:15 AM 16.5 °F 9.4 °F 7.7 °F 68% 30.32 in 10.0 mi North 4.6 mph - N/A   Overcast
4:35 AM 16.5 °F 9.4 °F 8.2 °F 70% 30.33 in 10.0 mi North 4.6 mph - N/A   Overcast
4:55 AM 16.2 °F 5.5 °F 10.6 °F 79% 30.33 in 7.0 mi NNW 8.1 mph - N/A Snow Light Snow
5:15 AM 15.8 °F 3.4 °F 10.8 °F 80% 30.34 in 7.0 mi NNW 10.4 mph - N/A Snow Light Snow
5:35 AM 15.6 °F 4.0 °F 8.4 °F 73% 30.34 in 10.0 mi North 9.2 mph - N/A   Overcast
5:55 AM 15.4 °F 4.6 °F 8.4 °F 74% 30.34 in 10.0 mi North 8.1 mph - N/A   Overcast
6:15 AM 15.3 °F 3.5 °F 7.7 °F 72% 30.35 in 10.0 mi NNW 9.2 mph - N/A   Overcast
6:35 AM 14.9 °F 2.3 °F 6.8 °F 70% 30.36 in 10.0 mi NNW 10.4 mph - N/A   Overcast
6:55 AM 14.4 °F 2.4 °F 5.9 °F 69% 30.37 in 10.0 mi NNW 9.2 mph - N/A   Overcast
7:15 AM 14.0 °F 0.5 °F 5.4 °F 69% 30.38 in 10.0 mi NNW 11.5 mph 18.4 mph N/A   Overcast
7:35 AM 14.0 °F 1.2 °F 5.2 °F 68% 30.38 in 10.0 mi NNW 10.4 mph - N/A   Overcast
7:55 AM 14.0 °F 2.0 °F 5.0 °F 67% 30.38 in 10.0 mi NW 9.2 mph 17.3 mph N/A   Overcast
8:15 AM 14.0 °F 3.9 °F 4.8 °F 67% 30.39 in 10.0 mi NNW 6.9 mph - N/A   Overcast
8:35 AM 14.0 °F 3.9 °F 4.1 °F 65% 30.39 in 10.0 mi NNW 6.9 mph 16.1 mph N/A   Overcast
8:55 AM 14.0 °F 2.9 °F 3.6 °F 63% 30.40 in 10.0 mi NNW 8.1 mph 16.1 mph N/A   Overcast
9:15 AM 14.4 °F 3.3 °F 3.9 °F 63% 30.40 in 10.0 mi NNW 8.1 mph - N/A   Mostly Cloudy
9:55 AM 15.1 °F 0.5 °F 3.0 °F 59% 30.40 in 10.0 mi NNW 13.8 mph - N/A   Scattered Clouds
10:15 AM 16.2 °F 3.9 °F 3.4 °F 57% 30.39 in 10.0 mi North 10.4 mph - N/A   Overcast
10:35 AM 16.2 °F 4.7 °F 2.7 °F 55% 30.39 in 10.0 mi NNW 9.2 mph 17.3 mph N/A   Overcast
10:55 AM 16.2 °F 4.7 °F 2.7 °F 55% 30.39 in 10.0 mi NW 9.2 mph 18.4 mph N/A   Overcast
11:15 AM 17.4 °F 6.2 °F 2.5 °F 52% 30.38 in 10.0 mi NW 9.2 mph - N/A   Mostly Cloudy
11:55 AM 19.4 °F 6.0 °F 3.4 °F 50% 30.35 in 10.0 mi NNW 13.8 mph 17.3 mph N/A   Mostly Cloudy
12:15 PM 19.2 °F 8.4 °F 2.1 °F 47% 30.35 in 10.0 mi WNW 9.2 mph - N/A   Overcast
12:35 PM 17.6 °F 3.7 °F 0.9 °F 48% 30.34 in 10.0 mi NW 13.8 mph 17.3 mph N/A   Overcast
12:55 PM 16.9 °F 4.8 °F 3.2 °F 55% 30.34 in 10.0 mi WNW 10.4 mph - N/A   Overcast
1:15 PM 16.7 °F 2.6 °F 3.6 °F 56% 30.34 in 10.0 mi NW 13.8 mph 18.4 mph N/A   Overcast
1:35 PM 16.2 °F 5.5 °F 4.6 °F 61% 30.33 in 4.0 mi WNW 8.1 mph 13.8 mph N/A Snow Light Snow
2:15 PM 16.9 °F 2.3 °F 2.5 °F 53% 30.33 in 10.0 mi NW 15.0 mph 19.6 mph N/A   Mostly Cloudy
2:35 PM 15.8 °F 3.4 °F 1.4 °F 53% 30.33 in 10.0 mi WNW 10.4 mph 21.9 mph N/A   Overcast
2:55 PM 15.8 °F 5.1 °F 1.2 °F 53% 30.33 in 10.0 mi West 8.1 mph 21.9 mph N/A   Overcast
3:15 PM 16.2 °F 1.9 °F 1.0 °F 51% 30.34 in 10.0 mi WNW 13.8 mph 24.2 mph N/A   Overcast
3:35 PM 15.6 °F 2.5 °F 0.9 °F 52% 30.34 in 10.0 mi NW 11.5 mph 17.3 mph N/A   Overcast
3:55 PM 14.5 °F 1.9 °F -0.8 °F 51% 30.34 in 10.0 mi NW 10.4 mph 20.7 mph N/A   Scattered Clouds
4:15 PM 14.0 °F 0.5 °F -1.5 °F 50% 30.35 in 10.0 mi WNW 11.5 mph 17.3 mph N/A   Scattered Clouds
4:35 PM 13.5 °F 1.3 °F 1.8 °F 60% 30.35 in 10.0 mi WNW 9.2 mph 18.4 mph N/A   Mostly Cloudy
4:55 PM 12.6 °F 1.1 °F 4.1 °F 69% 30.37 in 5.0 mi NW 8.1 mph 17.3 mph N/A Snow Light Snow
5:15 PM 12.2 °F 0.7 °F 1.8 °F 63% 30.37 in 10.0 mi WNW 8.1 mph - N/A   Scattered Clouds
5:35 PM 12.0 °F 0.5 °F 0.3 °F 59% 30.37 in 10.0 mi WNW 8.1 mph - N/A   Clear
5:55 PM 11.8 °F -2.3 °F -1.3 °F 56% 30.38 in 10.0 mi NW 11.5 mph 17.3 mph N/A   Scattered Clouds
6:15 PM 11.3 °F -2.2 °F -0.2 °F 60% 30.39 in 10.0 mi WNW 10.4 mph - N/A   Mostly Cloudy
6:35 PM 11.1 °F -3.2 °F -1.3 °F 57% 30.40 in 10.0 mi NW 11.5 mph - N/A   Scattered Clouds
6:55 PM 10.6 °F -4.5 °F -1.1 °F 59% 30.41 in 10.0 mi NNW 12.7 mph 16.1 mph N/A   Scattered Clouds
7:15 PM 10.4 °F -3.3 °F -1.5 °F 59% 30.41 in 10.0 mi NW 10.4 mph 17.3 mph N/A   Scattered Clouds
7:35 PM 10.0 °F -4.5 °F -1.7 °F 59% 30.42 in 10.0 mi NW 11.5 mph 18.4 mph N/A   Clear
7:55 PM 9.5 °F -5.2 °F -2.0 °F 60% 30.42 in 10.0 mi NW 11.5 mph 20.7 mph N/A   Clear
8:15 PM 9.1 °F -4.0 °F -2.0 °F 61% 30.42 in 10.0 mi NNW 9.2 mph - N/A   Clear
8:35 PM 9.0 °F -4.2 °F -2.2 °F 61% 30.42 in 10.0 mi NW 9.2 mph - N/A   Clear
8:55 PM 8.4 °F -2.8 °F -2.4 °F 62% 30.43 in 10.0 mi NW 6.9 mph 16.1 mph N/A   Clear
9:15 PM 8.1 °F -5.3 °F -3.5 °F 59% 30.43 in 10.0 mi NW 9.2 mph 16.1 mph N/A   Clear
9:35 PM 7.7 °F -8.2 °F -4.0 °F 59% 30.44 in 10.0 mi NNW 12.7 mph 18.4 mph N/A   Clear
9:55 PM 7.3 °F -7.9 °F -3.8 °F 60% 30.44 in 10.0 mi NNW 11.5 mph - N/A   Clear
10:15 PM 7.2 °F -8.9 °F -3.5 °F 62% 30.44 in 10.0 mi NNW 12.7 mph 16.1 mph N/A   Clear
10:35 PM 7.0 °F -4.5 °F -3.5 °F 62% 30.44 in 10.0 mi NW 6.9 mph - N/A   Clear
10:55 PM 6.8 °F -5.9 °F -3.3 °F 63% 30.44 in 10.0 mi WNW 8.1 mph - N/A   Clear
11:15 PM 6.6 °F -2.2 °F -3.3 °F 64% 30.44 in 10.0 mi WNW 4.6 mph - N/A   Clear
11:35 PM 6.1 °F -7.8 °F -3.5 °F 65% 30.44 in 10.0 mi NW 9.2 mph - N/A   Clear
11:55 PM 5.9 °F -7.0 °F -3.8 °F 64% 30.43 in 10.0 mi NW 8.1 mph 16.1 mph N/A   Clear